Location: Seven Kings
(51.5667°N, 0.1000°E)
Time: 20:17:51
(UTC+00:00)

X-37B - Pass Details

Date: 18 June 2021
Orbit: 383 x 392 km, 45.0° (Epoch: 01 July)

Event Time Altitude Azimuth Distance (km) Brightness Sun altitude
Exits shadow 02:20:32 11° 237° (WSW) 1,337 2.7 -9.0°
Maximum altitude 02:22:59 25° 182° (S) 829 1.8 -8.8°
Drops below altitude 10° 02:25:39 10° 125° (SE) 1,408 3.4 -8.6°
Sets 02:27:56 0° 111° (ESE) 2,264 4.6 -8.4°
